|   |  | Asteroid 2011 ON24
					
					
					
					
						
					
					
						
							(Preview) 
						
							
								Orbital elements:
2011 ON24                                                Earth MOID = 0.1503 AU
Epoch 2011 Aug. 27.0 TT = JDT 2455800.5                 MPC
M 306.92886              (2000.0)            P               Q
n   0.71173668     Peri.  279.85739     +0.72095646     -0.66210878
a   1.2423858      Node   121.93176     +0.69175959     +0.67011361
e   0.1748978      Incl.   13.94567     +0.04111511     +0.33549920
P   1.38           H   23.... | Blobrana | 2 |  |  | 
		
			
			
				
				
					|   |   | Asteroid 2011 XM1
					
					
					
					
						
					
					
						
							(Preview) 
						
							
								Orbital elements:
2011 XM1                                            PHA, Earth MOID = 0.0455 AU
Epoch 2011 Aug. 27.0 TT = JDT 2455800.5                 MPC
M 344.19432              (2000.0)            P               Q
n   0.21492074     Peri.  163.20800     +0.39827459     -0.89729502
a   2.7602632      Node   262.98869     +0.81799734     +0.44134383
e   0.6697042      Incl.   11.05783     +0.41503941     -0.00879019
P   4.59           H... | Blobrana | 0 |  |  | 
		
			
			
				
				
					|   |  | Asteroid 2008 EJ85
					
					
					
					
						
					
					
						
							(Preview) 
						
							
								The 27 - 60 metre wide asteroid 2008 EJ85 will make a close pass (9.1 lunar distances, 0.0235 AU), travelling at 6.52 km/second, to the Earth-Moon system on the 6th March, 2012 @ 22:27 UT ±2 days 08:47.   See more  The Lunar Dis...               | Blobrana | 0 |  |  | 
		
			
			
				
				
					|   |  | Asteroid 2011 WS95
					
					
					
					
						
					
					
						
							(Preview) 
						
							
								Orbital elements:
2011 WS95                                                Earth MOID = 0.0147 AU
Epoch 2011 Aug. 27.0 TT = JDT 2455800.5                 MPC
M 315.66070              (2000.0)            P               Q
n   0.30668254     Peri.  250.05259     -0.56154747     -0.82725843
a   2.1777600      Node   234.12266     +0.76703342     -0.51247774
e   0.5645575      Incl.    1.24093     +0.31036135     -0.23023913
P   3.21           H   24.7... | Blobrana | 1 |  |  | 
		
			
			
				
				
					|   |  | Asteroid 2011 UR402
					
					
					
					
						
					
					
						
							(Preview) 
						
							
								Orbital elements:
2011 UR402
Epoch 2011 Aug. 27.0 TT = JDT 2455800.5                 MPC
M 348.10655              (2000.0)            P               Q
n   0.01208932     Peri.  293.76325     -0.85362486     -0.44091808
a  18.8018903      Node   221.62472     +0.47677697     -0.87581029
e   0.7803469      Incl.   24.67811     -0.20978159     -0.19633537
P  81.53           H   12.3           G   0.15           U   4 MPEC 201... | Blobrana | 0 |  |  | 
		
			
			
				
				
					|   |  | Asteroid 2011 XE1
					
					
					
					
						
					
					
						
							(Preview) 
						
							
								Orbital elements:
2011 XE1                                                 Earth MOID = 0.3710 AU
Epoch 2011 Aug. 27.0 TT = JDT 2455800.5                 MPC
M 310.51822              (2000.0)            P               Q
n   0.25488999     Peri.  243.60724     -0.86762956     -0.37675075
a   2.4635849      Node   272.76268     +0.48564942     -0.78204838
e   0.4970052      Incl.   18.95606     -0.10660011     -0.49644658
P   3.87           H   18.2... | Blobrana | 0 |  |  | 
		
			
			
				
				
					|   |  | Asteroid 2011 XD1
					
					
					
					
						
					
					
						
							(Preview) 
						
							
								Orbital elements:
2011 XD1                                                 Earth MOID = 0.0239 AU
Epoch 2011 Aug. 27.0 TT = JDT 2455800.5                 MPC
M 304.03823              (2000.0)            P               Q
n   0.39944859     Peri.   27.12183     -0.45075544     -0.88960895
a   1.8259776      Node    89.74970     +0.80506452     -0.44075757
e   0.4564226      Incl.    4.22024     +0.38560428     -0.11970249
P   2.47           H   24.1           G   0....                     | Blobrana | 0 |  |  | 
		
			
			
				
				
					|   |  | Asteroid 2003 XV
					
					
					
					
						
					
					
						
							(Preview) 
						
							
								The 12 - 27 metre wide asteroid 2003 XV will make a close pass (10.2 lunar distances, 0.0262 AU), travelling at 12.66 km/second, to the Earth-Moon system on the 4th December, 2011 @ 02:59 UT ±2 days 19:31.   See more  The Lunar Di...               | Blobrana | 2 |  |  | 
		
			
			
				
				
					|   |  | Asteroid 2011 UR255
					
					
					
					
						
					
					
						
							(Preview) 
						
							
								Orbital elements:
2011 UR255                                               Earth MOID = 0.4370 AU
Epoch 2011 Aug. 27.0 TT = JDT 2455800.5                 MPC
M  33.39299              (2000.0)            P               Q
n   0.38497456     Peri.   98.26094     +0.72264427     +0.64739281
a   1.8714635      Node   221.88331     -0.68473489     +0.71836291
e   0.3266065      Incl.   21.27257     +0.09446367     +0.25463166
P   2.56           H   20.2... | Blobrana | 0 |  |  | 
		
			
			
				
				
					|   |  | Asteroid 2011 XF
					
					
					
					
						
					
					
						
							(Preview) 
						
							
								Orbital elements:
2011 XF                                                  Earth MOID = 0.2737 AU
Epoch 2011 Aug. 27.0 TT = JDT 2455800.5                 MPC
M 323.28257              (2000.0)            P               Q
n   0.30078571     Peri.  352.24525     +0.01450945     -0.99436302
a   2.2061308      Node    96.88031     +0.92297028     -0.02708435
e   0.4296235      Incl.    6.07289     +0.38459764     +0.10251157
P   3.28           H   22.7           G   0.... | Blobrana | 0 |  |  | 
		
			
			
				
				
					|   |  | Asteroid 2008 XF
					
					
					
					
						
					
					
						
							(Preview) 
						
							
								Orbital elements:
2008 XF                                                  Earth MOID = 0.1997 AU
Epoch 2011 Aug. 27.0 TT = JDT 2455800.5                 MPC
M 255.09090              (2000.0)            P               Q
n   0.66170225     Peri.  243.81459     -0.51600583     -0.82950771
a   1.3042504      Node   238.89057     +0.84764857     -0.45854352
e   0.1370399      Incl.   14.45157     +0.12340942     -0.31883351
P   1.49           H   23.4           G... | Blobrana | 0 |  |  | 
		
			
			
				
				
					|   |  | Asteroid 2011 WV95
					
					
					
					
						
					
					
						
							(Preview) 
						
							
								Orbital elements:
2011 WV95                                                Earth MOID = 0.0093 AU
Epoch 2011 Aug. 27.0 TT = JDT 2455800.5                 MPC
M 299.65595              (2000.0)            P               Q
n   0.41494006     Peri.   24.57669     -0.57143730     -0.81965761
a   1.7802424      Node   100.29775     +0.74599628     -0.53927485
e   0.4485914      Incl.    2.34511     +0.34197802     -0.19324605
P   2.38           H   24.0           G...                         | Blobrana | 0 |  |  | 
		
			
			
				
				
					|   |  | Asteroid 2011 WW95
					
					
					
					
						
					
					
						
							(Preview) 
						
							
								Orbital elements:
2011 WW95                                                Earth MOID = 0.1858 AU
Epoch 2011 Aug. 27.0 TT = JDT 2455800.5                 MPC
M 248.70204              (2000.0)            P               Q
n   0.65520825     Peri.  252.38102     -0.60268934     -0.58402914
a   1.3128541      Node   248.02468     +0.74489870     -0.65613121
e   0.2067252      Incl.   35.89931     -0.28616687     -0.47791400
P   1.50           H   23....                                    | Blobrana | 0 |  |  | 
		
			
			
				
				
					|   |  | Asteroid 2011 WB96
					
					
					
					
						
					
					
						
							(Preview) 
						
							
								Orbital elements:
2011 WB96                                                Earth MOID = 0.0680 AU
Epoch 2011 Aug. 27.0 TT = JDT 2455800.5                 MPC
M 311.97133              (2000.0)            P               Q
n   0.67704131     Peri.  336.16107     +0.63007461     -0.72277216
a   1.2844758      Node    73.48900     +0.75155095     +0.47558894
e   0.1887115      Incl.   17.22490     +0.19538974     +0.50141358
P   1.46           H   23.4...                                 | Blobrana | 0 |  |  | 
		
			
			
				
				
					|   |  | Asteroid 2011 WU74
					
					
					
					
						
					
					
						
							(Preview) 
						
							
								Orbital elements:
2011 WU74                                                Earth MOID = 0.0038 AU
Epoch 2011 Aug. 27.0 TT = JDT 2455800.5                 MPC
M 314.06656              (2000.0)            P               Q
n   0.32129518     Peri.  256.41325     -0.81646833     -0.56931676
a   2.1112188      Node   248.80261     +0.56159110     -0.74430718
e   0.6690516      Incl.    5.92350     +0.13414507     -0.34912069
P   3.07           H   26.3...                                      | Blobrana | 0 |  |  |